Orbital Elements at Epoch 2455471.5 (2010-Oct-02.0) TDB
Reference: JPL 28 (heliocentric ecliptic J2000)
Element | Value | Uncertainty (1-sigma) | Units |
e | .3349222812915101 | 3.0353e-07 | |
a | 4.484981085090934 | 1.3875e-07 | au |
q | 2.982860988523006 | 1.4069e-06 | au |
i | 14.63507406238314 | 1.617e-05 | deg |
node | 56.12915682706939 | 0.00011088 | deg |
peri | 53.41731985229155 | 0.00031142 | deg |
M | 37.93214340941561 | 0.00014865 | deg |
tp | 2455105.952150246806 (2009-Oct-01.45215025) | 0.0014394 | TDB |
period | 3469.279984807936 9.50 | 0.00016099 4.408e-07 | d yr |
n | .1037679292465437 | 4.8152e-09 | deg/d |
Q | 5.987101181658861 | 1.8522e-07 | au |
|
| | Orbit Determination Parameters
Additional Information
|